Location: Dehesa de la Cepeda
(40.6574°N, 4.3013°W)
Time: 10:01:31
(UTC+00:00)

Transit 2A Rocket - Pass Details

Date: 12 August 2021
Orbit: 586 x 917 km, 66.7° (Epoch: 24 September)

Event Time Altitude Azimuth Distance (km) Brightness Sun altitude
Rises 19:47:31 0° 335° (NNW) 3,321 9.2 -5.8°
Reaches altitude 10° 19:50:00 10° 342° (NNW) 2,435 8.3 -6.3°
Maximum altitude 19:55:26 45° 55° (NE) 1,173 5.8 -7.2°
Drops below altitude 10° 20:01:10 10° 127° (SE) 2,576 7.1 -8.1°
Enters shadow 20:01:20 - 127° (SE) 2,634 7.1 -8.2°
Sets 20:03:51 0° 133° (SE) 3,531 - -8.6°
